Le nostre stazioni meteo in Italia

Pubblicità
Il mio iltempo24.it
Besancon, Francia (7288): Temperatura & dewpoint: 17.07.2019 06:00:00 - 23.07.2019 06:00:00 (CEST)Besancon, Francia (7288): Temperatura 5cm: 17.07.2019 06:00:00 - 23.07.2019 06:00:00 (CEST)Besancon, Francia (7288): Temperatura -20cm & Temperatura -100cm: 17.07.2019 06:00:00 - 23.07.2019 06:00:00 (CEST)Besancon, Francia (7288): velocità del vento & gusts: 17.07.2019 06:00:00 - 23.07.2019 06:00:00 (CEST)Besancon, Francia (7288): direzione del vento: 17.07.2019 06:00:00 - 23.07.2019 06:00:00 (CEST)Besancon, Francia (7288): reduced air pressure: 17.07.2019 06:00:00 - 23.07.2019 06:00:00 (CEST)Besancon, Francia (7288): ore di luce: 17.07.2019 06:00:00 - 23.07.2019 06:00:00 (CEST)Besancon, Francia (7288): precipitazioni: 17.07.2019 06:00:00 - 23.07.2019 06:00:00 (CEST)
Data & Tempo tt [°C] td [°C] tt 5cm [°C] tt -20cm [°C] tt -100cm [°C] ff [km/h] ff [kn] fx [km/h] fx [kn] dd ppp [hPa] sd [min] rr [mm]
23.07.2019 06:00:00 20,1 13,8 15,6 23,8 19,2 0 0 3 2 N 1019,9 0 0,0
23.07.2019 05:00:00 20,1 14,0 15,7 23,9 19,2 0 0 5 3 N 1019,9 0 0,0
23.07.2019 04:00:00 20,5 14,4 15,9 24,1 19,2 0 0 5 3 N 1019,9 0 0,0
23.07.2019 03:00:00 21,1 15,0 16,6 24,2 19,2 3 1 6 3 NNE 1019,9 0 0,0
23.07.2019 02:00:00 21,4 15,5 16,8 24,3 19,2 0 0 6 3 N 1020,3 0 0,0
23.07.2019 01:00:00 21,3 15,6 17,3 24,4 19,2 0 0 7 4 N 1020,6 0 0,0
23.07.2019 00:00:00 22,3 15,6 18,0 24,5 19,2 4 2 7 4 NNE 1020,6 0 0,0
22.07.2019 23:00:00 23,5 15,3 19,1 24,5 19,2 0 0 4 2 N 1020,5 0 0,0
22.07.2019 22:00:00 24,8 15,1 19,9 24,5 19,1 0 0 8 4 N 1020,5 0 0,0
22.07.2019 21:00:00 27,5 15,2 23,7 24,5 19,1 2 1 17 9 NNE 1020,0 56 0,0
22.07.2019 20:00:00 29,7 14,7 29,5 24,3 19,1 8 5 19 10 NNE 1019,6 60 0,0
22.07.2019 19:00:00 30,7 13,9 34,1 24,2 19,1 9 5 18 10 NNE 1019,5 51 0,0
22.07.2019 18:00:00 31,3 13,6 36,2 24,0 19,2 9 5 17 9 NNO 1019,8 49 0,0
22.07.2019 17:00:00 31,7 13,9 39,1 23,6 19,1 9 5 19 11 NO 1020,1 56 0,0
22.07.2019 16:00:00 31,9 14,5 38,9 23,4 19,1 4 2 17 9 SO 1020,5 52 0,0
22.07.2019 15:00:00 30,9 13,7 39,4 23,2 19,1 3 2 16 9 O 1021,2 47 0,0
22.07.2019 14:00:00 30,4 12,8 44,1 22,9 19,1 6 3 21 11 N 1021,8 60 0,0
22.07.2019 13:00:00 29,4 14,4 41,3 22,8 19,1 6 3 16 9 NO 1022,4 56 0,0
22.07.2019 12:00:00 27,7 15,7 39,0 22,7 19,1 8 4 17 9 NNO 1022,7 60 0,0
22.07.2019 11:00:00 26,9 15,9 36,2 22,7 19,1 7 4 13 7 N 1022,7 60 0,0
22.07.2019 10:00:00 25,9 13,7 30,6 22,8 19,1 2 1 5 3 N 1022,7 60 0,0
22.07.2019 09:00:00 22,4 14,8 17,8 22,9 19,1 2 1 6 4 N 1023,2 60 0,0
22.07.2019 08:00:00 18,3 15,0 15,3 23,1 19,1 0 0 5 3 N 1023,5 25 0,0
22.07.2019 07:00:00 16,6 14,8 13,0 23,2 19,1 3 1 5 3 N 1023,2 17 0,0
22.07.2019 06:00:00 16,4 14,6 13,0 23,4 19,1 2 1 5 3 NNE 1023,3 0 0,0
22.07.2019 05:00:00 16,9 14,7 13,6 23,5 19,1 3 1 6 4 NNE 1023,1 0 0,0
22.07.2019 04:00:00 17,4 14,9 13,8 23,7 19,1 0 0 8 4 N 1023,1 0 0,0
22.07.2019 03:00:00 18,3 15,0 14,5 23,8 19,1 0 0 6 3 N 1022,6 0 0,0
22.07.2019 02:00:00 19,2 15,3 15,1 24,0 19,1 2 1 4 2 NNE 1022,6 0 0,0
22.07.2019 01:00:00 20,1 14,9 15,7 24,1 19,1 0 0 7 4 N 1022,6 0 0,0
22.07.2019 00:00:00 20,5 15,3 16,2 24,2 19,1 0 0 6 4 N 1022,2 0 0,0
21.07.2019 23:00:00 21,7 15,8 17,0 24,2 19,1 0 0 6 4 N 1021,8 0 0,0
21.07.2019 22:00:00 23,9 14,6 18,3 24,2 19,1 3 1 4 2 NNE 1021,2 0 0,0
21.07.2019 21:00:00 26,3 14,1 22,5 24,2 19,1 0 0 10 5 N 1020,7 13 0,0
21.07.2019 20:00:00 29,2 12,6 30,3 24,0 19,1 5 3 13 7 O 1020,0 60 0,0
21.07.2019 19:00:00 29,9 12,8 33,0 23,9 19,1 4 2 16 9 O 1019,6 58 0,0
21.07.2019 18:00:00 30,1 12,5 33,2 23,6 19,1 6 3 16 9 OSO 1019,7 47 0,0
21.07.2019 17:00:00 29,7 12,6 38,0 23,3 19,1 6 3 21 11 NNO 1020,0 60 0,0
21.07.2019 16:00:00 29,4 12,3 40,4 23,1 19,1 7 4 23 12 O 1020,3 60 0,0
21.07.2019 15:00:00 28,9 11,9 32,2 22,8 19,1 9 5 20 11 OSO 1020,5 43 0,0
21.07.2019 14:00:00 27,7 15,4 33,4 22,6 19,1 10 5 22 12 O 1021,0 45 0,0
21.07.2019 13:00:00 26,8 16,1 31,4 22,4 19,0 6 3 19 10 ONO 1021,7 40 0,0
21.07.2019 12:00:00 25,7 16,8 31,9 22,3 19,0 6 4 12 7 SSO 1021,6 53 0,0
21.07.2019 11:00:00 24,8 17,5 31,2 22,3 19,0 2 1 8 4 SSE 1021,5 48 0,0
21.07.2019 10:00:00 22,6 18,2 26,8 22,3 19,1 0 0 9 5 N 1021,5 38 0,0
21.07.2019 09:00:00 21,2 19,1 21,2 22,3 19,0 6 3 13 7 OSO 1021,6 42 0,2
21.07.2019 08:00:00 20,1 19,3 19,3 22,4 19,0 4 2 9 5 SO 1021,1 19 0,0
21.07.2019 07:00:00 19,5 18,8 18,4 22,5 19,0 2 1 5 3 SO 1020,5 0 0,0
21.07.2019 06:00:00 19,4 18,7 18,0 22,6 19,0 0 0 4 2 N 1020,1 0 0,0
21.07.2019 05:00:00 19,2 18,5 18,3 22,6 19,0 0 0 4 2 N 1019,6 0 0,0
21.07.2019 04:00:00 19,1 18,3 18,4 22,7 19,0 0 0 8 4 N 1019,5 0 0,0
21.07.2019 03:00:00 19,3 18,5 18,4 22,8 19,0 0 0 10 5 N 1019,2 0 2,8
21.07.2019 02:00:00 19,4 18,4 18,6 22,9 19,0 3 2 21 12 SSE 1019,0 0 11,1
21.07.2019 01:00:00 20,2 18,3 18,5 23,0 19,0 3 1 13 7 OSO 1018,6 0 0,2
21.07.2019 00:00:00 21,1 17,7 18,4 23,0 19,0 0 0 37 20 N 1017,2 0 0,4
20.07.2019 23:00:00 25,4 14,5 24,1 23,0 19,0 6 4 34 19 SO 1016,3 0 0,0
20.07.2019 22:00:00 26,7 11,6 21,9 23,0 19,0 6 3 14 7 SO 1015,2 0 0,0
20.07.2019 21:00:00 27,0 11,9 23,8 23,0 19,0 0 0 13 7 N 1014,1 24 0,0
20.07.2019 20:00:00 28,5 10,7 27,6 22,9 19,0 5 3 29 16 SO 1013,4 0 0,0
20.07.2019 19:00:00 29,4 11,4 30,3 22,7 19,0 11 6 27 15 SO 1013,4 0 0,0
20.07.2019 18:00:00 30,9 9,7 33,5 22,6 19,0 13 7 33 18 SO 1013,2 46 0,0
20.07.2019 17:00:00 31,7 11,0 38,3 22,4 19,0 11 6 29 16 O 1013,1 60 0,0
20.07.2019 16:00:00 30,1 11,1 30,3 22,3 19,0 14 8 27 14 OSO 1013,6 23 0,0
20.07.2019 15:00:00 27,9 12,3 29,0 22,2 19,0 9 5 27 14 OSO 1014,3 0 0,0
20.07.2019 14:00:00 29,3 11,4 32,3 22,1 19,0 13 7 34 18 OSO 1014,1 17 0,0
20.07.2019 13:00:00 27,6 12,0 29,7 21,9 19,0 9 5 32 17 SO 1014,3 0 0,0
20.07.2019 12:00:00 28,5 11,1 32,5 21,9 19,0 15 8 40 21 SO 1014,1 39 0,0
20.07.2019 11:00:00 27,9 11,0 30,3 22,0 19,0 20 11 44 24 SO 1013,9 55 0,0
20.07.2019 10:00:00 26,7 10,0 27,3 22,0 19,0 19 10 42 23 SO 1013,8 60 0,0
20.07.2019 09:00:00 23,9 11,9 19,9 22,1 19,0 6 4 16 9 SO 1013,7 48 0,0
20.07.2019 08:00:00 19,8 12,5 14,3 22,2 19,0 3 1 8 4 SO 1013,8 60 0,0
20.07.2019 07:00:00 16,2 12,6 12,3 22,4 19,0 2 1 5 3 NNE 1014,0 4 0,0
20.07.2019 06:00:00 15,9 12,6 11,7 22,5 19,0 4 2 7 4 NNE 1013,7 0 0,0
20.07.2019 05:00:00 16,3 12,6 11,9 22,7 19,0 3 2 5 3 NNE 1013,7 0 0,0
20.07.2019 04:00:00 17,1 12,6 12,4 22,8 19,0 3 2 6 4 NNE 1013,7 0 0,0
20.07.2019 03:00:00 17,3 12,6 12,9 23,0 19,0 4 2 5 3 NNE 1014,0 0 0,0
20.07.2019 02:00:00 17,7 12,6 12,9 23,1 19,0 4 2 6 3 NNE 1014,1 0 0,0
20.07.2019 01:00:00 18,2 12,4 13,0 23,2 19,0 4 2 6 4 NNE 1014,3 0 0,0
20.07.2019 00:00:00 18,8 12,8 13,5 23,3 19,0 0 0 8 4 N 1014,5 0 0,0
19.07.2019 23:00:00 20,4 12,9 14,5 23,3 19,0 3 2 6 4 NNE 1014,4 0 0,0
19.07.2019 22:00:00 22,7 12,6 16,9 23,3 19,0 0 0 3 2 N 1014,0 0 0,0
19.07.2019 21:00:00 26,0 12,1 22,0 23,2 19,0 2 1 13 7 SO 1013,5 30 0,0
19.07.2019 20:00:00 27,7 10,4 29,5 23,1 19,0 5 3 17 9 OSO 1013,3 58 0,0
19.07.2019 19:00:00 28,1 10,8 33,5 23,0 19,0 9 5 18 10 OSO 1013,4 60 0,0
19.07.2019 18:00:00 28,5 11,1 35,5 22,7 19,0 6 3 19 10 O 1013,7 60 0,0
19.07.2019 17:00:00 28,2 11,7 36,8 22,5 19,0 8 4 28 15 ONO 1014,0 60 0,0
19.07.2019 16:00:00 27,6 12,0 33,1 22,3 19,0 8 4 28 15 SSO 1014,7 43 0,0
19.07.2019 15:00:00 26,7 12,0 34,6 22,1 18,9 7 4 22 12 O 1015,1 43 0,0
19.07.2019 14:00:00 26,4 12,5 31,5 21,9 19,0 9 5 24 13 OSO 1015,7 32 0,0
19.07.2019 13:00:00 24,8 12,1 29,0 21,8 19,0 8 4 21 11 OSO 1016,1 17 0,0
19.07.2019 12:00:00 24,1 12,7 29,5 21,7 18,9 5 3 18 10 OSO 1016,3 40 0,0
19.07.2019 11:00:00 23,6 13,5 33,5 21,7 18,9 4 2 14 8 OSO 1016,7 60 0,0
19.07.2019 10:00:00 21,7 13,1 26,9 21,8 18,9 5 3 15 8 SO 1016,9 60 0,0
19.07.2019 09:00:00 20,1 11,8 17,9 21,9 18,9 8 4 15 8 SO 1017,2 60 0,0
19.07.2019 08:00:00 18,3 11,6 14,7 22,1 18,9 7 4 17 9 SSO 1017,1 17 0,0
19.07.2019 07:00:00 16,6 11,5 12,7 22,2 18,9 0 0 4 2 N 1017,0 0 0,0
19.07.2019 06:00:00 15,8 11,6 12,1 22,3 18,9 0 0 4 2 N 1016,8 0 0,0
19.07.2019 05:00:00 16,3 11,7 11,8 22,5 19,0 0 0 4 2 N 1016,4 0 0,0
19.07.2019 04:00:00 16,9 11,6 12,3 22,6 18,9 0 0 5 3 N 1016,1 0 0,0
19.07.2019 03:00:00 17,9 11,7 13,2 22,7 18,9 0 0 4 2 N 1016,1 0 0,0
19.07.2019 02:00:00 18,9 11,2 14,5 22,8 18,9 0 0 6 3 N 1015,9 0 0,0
19.07.2019 01:00:00 19,4 10,9 14,7 22,9 18,9 0 0 7 4 N 1015,7 0 0,0
19.07.2019 00:00:00 20,2 10,6 15,5 23,0 18,9 0 0 5 3 N 1015,2 0 0,0
18.07.2019 23:00:00 21,6 10,7 16,9 23,1 18,9 2 1 8 4 SO 1014,7 0 0,0
18.07.2019 22:00:00 23,3 10,4 19,9 23,1 18,9 4 2 16 9 SSO 1014,1 0 0,0
18.07.2019 21:00:00 24,9 11,1 23,1 23,0 18,9 7 4 17 9 SO 1013,2 0 0,0
18.07.2019 20:00:00 26,6 10,7 26,8 22,9 18,9 7 4 22 12 SO 1012,4 47 0,0
18.07.2019 19:00:00 27,5 10,2 30,2 22,8 18,9 8 4 26 14 OSO 1012,0 49 0,0
18.07.2019 18:00:00 28,4 9,6 32,5 22,6 18,9 9 5 24 13 O 1011,7 54 0,0
18.07.2019 17:00:00 27,3 11,3 31,7 22,4 18,9 10 5 22 12 O 1011,9 0 0,0
18.07.2019 16:00:00 28,1 10,8 35,5 22,2 18,9 10 6 28 15 O 1011,9 52 0,0
18.07.2019 15:00:00 27,9 10,1 37,3 21,9 18,9 12 7 29 16 SO 1012,2 60 0,0
18.07.2019 14:00:00 27,5 10,2 34,5 21,8 18,9 11 6 29 15 O 1012,4 42 0,0
18.07.2019 13:00:00 27,1 10,3 32,4 21,7 18,9 9 5 23 12 OSO 1012,8 49 0,0
18.07.2019 12:00:00 25,7 8,2 32,4 21,6 18,9 8 4 20 11 OSO 1013,1 42 0,0
18.07.2019 11:00:00 25,4 7,5 33,5 21,6 18,9 8 4 17 9 SSO 1013,0 60 0,0
18.07.2019 10:00:00 23,0 7,5 27,0 21,7 18,9 6 3 13 7 SO 1013,3 60 0,0
18.07.2019 09:00:00 20,2 6,5 16,0 21,8 18,9 3 2 9 5 SSO 1013,7 58 0,0
18.07.2019 08:00:00 16,6 8,5 13,7 21,9 18,9 0 0 4 2 N 1013,8 0 0,0
18.07.2019 07:00:00 15,2 8,2 9,7 22,1 18,9 4 2 6 3 NNE 1013,4 11 0,0
18.07.2019 06:00:00 14,4 7,7 9,7 22,2 18,9 2 1 6 3 NNE 1013,6 0 0,0
18.07.2019 05:00:00 14,9 7,7 9,8 22,4 18,9 0 0 6 3 N 1013,3 0 0,0
18.07.2019 04:00:00 16,3 7,2 11,4 22,5 18,9 4 2 5 3 NNE 1013,2 0 0,0
18.07.2019 03:00:00 16,5 7,4 11,9 22,7 18,9 0 0 3 2 N 1013,6 0 0,0
18.07.2019 02:00:00 17,8 7,2 12,3 22,8 18,9 3 1 6 4 NNE 1013,5 0 0,0
18.07.2019 01:00:00 19,1 6,2 13,5 22,9 18,9 0 0 3 2 N 1013,3 0 0,0
18.07.2019 00:00:00 19,8 6,2 14,2 23,0 18,9 0 0 8 4 N 1013,2 0 0,0
17.07.2019 23:00:00 21,6 5,5 16,1 23,1 18,9 0 0 14 8 N 1012,9 0 0,0
17.07.2019 22:00:00 23,4 5,3 18,0 23,1 18,9 6 3 15 8 N 1012,3 0 0,0
17.07.2019 21:00:00 24,8 6,5 20,4 23,0 18,9 4 2 10 6 ONO 1011,6 19 0,0
17.07.2019 20:00:00 27,6 4,6 27,9 22,9 18,9 3 1 12 6 OSO 1011,0 45 0,0
17.07.2019 19:00:00 28,5 4,0 31,5 22,7 18,9 5 3 17 9 O 1011,0 55 0,0
17.07.2019 18:00:00 29,1 4,5 35,7 22,4 18,9 6 4 22 12 OSO 1011,3 60 0,0
17.07.2019 17:00:00 29,3 3,3 39,4 22,2 18,9 4 2 21 12 O 1011,7 60 0,0
17.07.2019 16:00:00 28,7 2,8 41,2 21,9 18,9 7 4 18 10 SO 1012,1 60 0,0
17.07.2019 15:00:00 28,0 5,5 41,9 21,6 18,9 8 5 19 10 OSO 1012,5 60 0,0
17.07.2019 14:00:00 26,7 6,1 42,4 21,5 18,9 6 4 19 10 O 1013,3 60 0,0
17.07.2019 13:00:00 25,5 8,9 32,1 21,4 18,9 7 4 18 10 O 1013,9 47 0,0
17.07.2019 12:00:00 23,7 10,4 32,4 21,3 18,9 7 4 15 8 ONO 1014,1 30 0,0
17.07.2019 11:00:00 23,3 11,4 27,6 21,3 18,9 5 3 13 7 O 1014,3 48 0,0
17.07.2019 10:00:00 21,7 12,0 27,7 21,4 18,9 3 2 10 5 ONO 1014,5 60 0,0
17.07.2019 09:00:00 19,3 11,3 13,2 21,5 18,9 3 1 5 3 O 1014,8 60 0,0
17.07.2019 08:00:00 14,8 10,8 9,8 21,7 18,9 0 0 3 2 N 1015,1 60 0,0
17.07.2019 07:00:00 12,3 10,2 8,1 21,8 18,9 2 1 4 2 NNE 1015,5 7 0,0
17.07.2019 06:00:00 12,3 10,0 8,0 22,0 18,9 0 0 4 2 N 1015,7 0 0,0

tt = Temperatura
td = dewpoint
tt 5cm = Temperatura 5cm
tt -20cm = Temperatura -20cm
tt -100cm = Temperatura -100cm
ff = velocità del vento
fx = gusts
dd = direzione del vento
ppp = reduced air pressure
sd = ore di luce
rr = precipitazioni

Stazioni seguenti

WeatherPro
AMSI
MeteoEarth